"Time","Temp","Dewpoint","Humidity","Pressure","Direction","Speed","Gust","Precip","PrecipRate"
"00:04:59","47.1","40.6","78","30.27","5","0","0","0.00","0.00"
"00:09:57","47","40.4","77.9","30.27","5","0.1","1.2","0.00","0.00"
"00:14:57","46.9","40","76.8","30.27","5","0","0","0.00","0.00"
"00:19:59","47","39.8","76.1","30.27","5","0","0","0.00","0.00"
"00:24:56","47.1","39.9","76","30.27","5","0","0","0.00","0.00"
"00:29:58","47.1","39.6","75.2","30.27","5","0","0","0.00","0.00"
"00:34:59","46.9","39.7","76","30.27","5","0","0","0.00","0.00"
"00:39:58","46.7","40","77.5","30.27","5","0","0","0.00","0.00"
"00:44:56","46.3","40.1","79","30.28","5","0","0","0.00","0.00"
"00:49:57","46","40.2","80","30.28","5","0","0","0.00","0.00"
"00:54:59","45.6","40.1","80.8","30.28","5","0","1.2","0.00","0.00"
"00:59:57","45.3","40","81.7","30.28","5","0","1.2","0.00","0.00"
"01:04:54","45","40.1","83","30.28","5","0","0","0.00","0.00"
"01:09:56","44.8","40.2","83.8","30.28","5","0","0","0.00","0.00"
"01:14:59","44.6","40.1","84","30.28","5","0","0","0.00","0.00"
"01:19:56","44.4","40.1","84.7","30.28","5","0.1","1.2","0.00","0.00"
"01:24:58","44.3","40.1","85","30.28","5","0","1.2","0.00","0.00"
"01:29:59","44.2","40","85","30.28","5","0","0","0.00","0.00"
"01:34:57","44.1","40.1","85.7","30.28","5","0","1","0.00","0.00"
"01:39:59","44","40.1","86","30.28","5","0.2","1.2","0.00","0.00"
"01:44:57","43.9","40","86","30.28","5","0.1","1.2","0.00","0.00"
"01:49:58","43.7","39.8","86","30.28","5","0","0","0.00","0.00"
"01:54:56","43.6","39.7","86","30.28","5","0","0","0.00","0.00"
"01:59:57","43.5","39.6","86","30.28","5","0","0","0.00","0.00"
"02:04:59","43.4","39.5","86","30.28","5","0","0","0.00","0.00"
"02:09:57","43.3","39.4","86","30.28","5","0","0","0.00","0.00"
"02:14:59","43.1","39.2","86","30.28","5","0","0","0.00","0.00"
"02:19:57","43","39.2","86.4","30.27","5","0","0","0.00","0.00"
"02:24:59","42.9","39.3","87","30.27","5","0","0","0.00","0.00"
"02:29:57","42.8","39.2","87","30.27","5","0","0","0.00","0.00"
"02:34:58","42.8","39.4","87.7","30.26","5","0","0","0.00","0.00"
"02:39:57","42.7","39.1","87","30.26","5","0","0","0.00","0.00"
"02:44:58","42.6","39","87","30.26","5","0","0","0.00","0.00"
"02:49:56","42.4","38.8","87","30.26","5","0","0","0.00","0.00"
"02:54:58","42.3","38.9","87.8","30.26","5","0","0","0.00","0.00"
"02:59:59","42.2","38.9","88","30.27","5","0","1.2","0.00","0.00"
"03:04:57","42.2","38.9","88","30.27","5","0","0","0.00","0.00"
"03:09:59","42.2","38.9","88","30.27","5","0","0","0.00","0.00"
"03:14:58","42.2","38.9","88","30.27","5","0","0","0.00","0.00"
"03:19:56","42","38.7","88","30.27","5","0","0","0.00","0.00"
"03:24:57","41.9","38.6","88","30.27","5","0","0","0.00","0.00"
"03:29:59","41.9","38.6","88","30.27","5","0","0","0.00","0.00"
"03:34:56","41.8","38.5","88","30.27","5","0","0","0.00","0.00"
"03:39:59","41.8","38.5","88","30.27","11","0.4","2.3","0.00","0.00"
"03:44:56","42","38.7","87.9","30.27","11","0.2","1.2","0.00","0.00"
"03:49:58","42.1","38.5","87","30.27","11","0.4","2.3","0.00","0.00"
"03:54:59","42","38.4","87","30.27","11","0","1","0.00","0.00"
"03:59:58","42","38.4","87","30.28","11","0.6","2.3","0.00","0.00"
"04:04:59","42.3","38.7","87","30.28","11","0.6","2.3","0.00","0.00"
"04:09:57","42.4","38.7","86.4","30.28","11","0.2","2","0.00","0.00"
"04:14:56","42.4","38.5","86","30.28","11","0.3","2.3","0.00","0.00"
"04:19:57","42.4","38.3","85.3","30.28","11","0.3","1.2","0.00","0.00"
"04:24:59","42.3","38.1","84.8","30.28","11","0","0","0.00","0.00"
"04:29:57","42.3","37.8","84.2","30.28","11","0.2","1.2","0.00","0.00"
"04:34:59","42.3","37.8","84.3","30.28","11","0","0","0.00","0.00"
"04:39:57","42.2","37.7","84","30.28","11","0","0","0.00","0.00"
"04:44:58","42.2","37.7","84","30.29","332","0.6","3.5","0.00","0.00"
"04:49:56","42.3","37.3","82.3","30.29","312","0.8","3.5","0.00","0.00"
"04:54:57","42.6","36.7","79.5","30.29","327","1.3","5","0.00","0.00"
"04:59:59","43","36.6","78","30.29","319","0","0","0.00","0.00"
"05:04:53","43.2","36.7","77.7","30.29","324","0.6","3.5","0.00","0.00"
"05:09:58","43.4","36.4","76.2","30.29","336","1.2","6","0.00","0.00"
"05:14:57","43.9","35.4","71.7","30.30","328","1.3","4","0.00","0.00"
"05:19:58","44.6","35.3","69.9","30.30","329","1.8","5","0.00","0.00"
"05:24:56","45.2","34.8","66.7","30.30","331","0.9","3.5","0.00","0.00"
"05:29:58","45.6","34.7","65.5","30.30","326","1.4","5","0.00","0.00"
"05:34:59","46.1","34.3","63.4","30.30","297","1.2","4","0.00","0.00"
"05:39:58","46.7","33.5","60","30.30","245","0.9","3.5","0.00","0.00"
"05:44:55","47.5","32.8","56.6","30.30","343","1.6","5","0.00","0.00"
"05:49:57","48.3","33.2","55.8","30.30","332","1.9","4.6","0.00","0.00"
"05:54:58","49","32.6","53.1","30.30","338","2.2","10.4","0.00","0.00"
"05:59:56","49.5","32.2","51.2","30.32","117","2.8","10.4","0.00","0.00"
"06:04:57","50.1","31.4","48.6","30.32","354","2.1","10.4","0.00","0.00"
"06:09:59","50.5","30.6","46.2","30.32","336","2.7","12","0.00","0.00"
"06:14:58","50.9","30","44.5","30.32","344","2","9.2","0.00","0.00"
"06:19:56","51.2","30","43.9","30.32","340","1.7","4.6","0.00","0.00"
"06:24:57","51.3","30.4","44.5","30.32","337","1","5","0.00","0.00"
"06:29:59","51.2","30.4","44.6","30.32","348","1.1","5","0.00","0.00"
"06:34:56","51.1","30.8","45.7","30.32","338","2.1","6","0.00","0.00"
"06:39:58","51","31.2","46.4","30.32","345","1.9","6","0.00","0.00"
"06:44:59","50.9","31.3","46.8","30.33","345","1.2","5.8","0.00","0.00"
"06:49:56","50.9","31.5","47.2","30.33","338","2","6","0.00","0.00"
"06:54:57","51","32","48.2","30.33","354","1.4","5.8","0.00","0.00"
"06:59:59","51","32.2","48.3","30.34","336","1.9","4","0.00","0.00"
"07:04:56","51.2","32.9","49.4","30.34","337","1.6","4","0.00","0.00"
"07:09:58","51.5","33.3","49.6","30.34","339","2.5","7","0.00","0.00"
"07:14:57","51.8","32.8","48.1","30.35","341","3.2","8.1","0.00","0.00"
"07:19:58","52.2","33.1","48.1","30.35","347","1.5","4.6","0.00","0.00"
"07:24:59","52.5","33","47.4","30.35","355","2.2","9.2","0.00","0.00"
"07:29:56","52.9","33.4","47.4","30.36","357","2.5","7","0.00","0.00"
"07:34:57","53.2","33.5","47","30.36","345","2.7","10.4","0.00","0.00"
"07:39:59","53.4","33.5","46.6","30.36","341","3.2","11.5","0.00","0.00"
"07:44:57","53.6","33","45.4","30.36","26","2.3","9.2","0.00","0.00"
"07:49:58","53.8","32.4","44","30.35","345","4.1","11","0.00","0.00"
"07:54:58","54","32","43","30.35","347","3.2","11.5","0.00","0.00"
"07:59:56","54.2","32.3","43.2","30.36","359","3.4","10.4","0.00","0.00"
"08:04:57","54.6","32.1","42.4","30.36","5","2.5","13","0.00","0.00"
"08:09:58","54.9","31.9","41.5","30.36","357","4.6","12.7","0.00","0.00"
"08:14:56","55.2","32.1","41.3","30.37","351","2.7","12","0.00","0.00"
"08:19:57","55.7","31.8","40.1","30.37","338","1.4","4","0.00","0.00"
"08:24:58","56.2","31.5","39","30.37","332","2.1","7","0.00","0.00"
"08:29:56","56.6","30.8","37.4","30.37","345","4.1","11.5","0.00","0.00"
"08:34:57","56.8","29.8","35.6","30.37","354","3","11.5","0.00","0.00"
"08:39:59","57.1","30.2","35.8","30.37","41","2.8","10.4","0.00","0.00"
"08:44:57","57.5","28.9","33.5","30.37","354","4.8","14","0.00","0.00"
"08:49:58","57.8","29.4","33.8","30.37","353","4","13","0.00","0.00"
"08:54:59","58.1","30.1","34.4","30.37","6","2.7","9.2","0.00","0.00"
"08:59:56","58.8","32.9","37.5","30.37","37","2.3","9.2","0.00","0.00"
"09:04:57","59.2","31.9","35.6","30.37","13","3.9","12","0.00","0.00"
"09:09:58","59.1","32.3","36.2","30.37","331","3.4","15","0.00","0.00"
"09:11:31","59.1","33.7","38.4","30.37","342","4.5","9.2","0.00","0.00"
"09:19:57","59.4","33.5","37.5","30.37","335","3.2","15","0.00","0.00"
"09:24:58","59.7","34.6","39","30.37","65","2.3","9.2","0.00","0.00"
"09:29:59","59.9","35.2","39.5","30.37","12","2.7","10","0.00","0.00"
"09:34:56","60.1","36.4","41.3","30.37","356","2.7","10.4","0.00","0.00"
"09:39:59","60.4","36.1","40.2","30.37","3","1.8","6.9","0.00","0.00"
"09:44:56","60.8","35.6","38.9","30.37","70","3","9.2","0.00","0.00"
"09:49:56","60.8","34.9","37.8","30.37","342","5.1","12","0.00","0.00"
"09:54:57","60.5","35.2","38.7","30.37","348","4.2","11.5","0.00","0.00"
"09:59:59","60.7","36","39.7","30.37","348","2.6","10.4","0.00","0.00"
"10:04:48","61","35.4","38.3","30.37","348","3.5","10","0.00","0.00"
"10:09:58","61.4","37","40.2","30.37","30","2","10.4","0.00","0.00"
"10:14:56","62","36.1","38","30.38","346","4.4","13","0.00","0.00"
"10:17:26","62.2","35.8","37.4","30.38","83","2.7","11.5","0.00","0.00"
"10:24:56","62.4","36.2","37.7","30.38","339","4.9","15","0.00","0.00"
"10:29:57","62.3","36.2","37.8","30.38","339","3.4","13.8","0.00","0.00"
"10:34:58","62.6","37.2","38.8","30.37","9","3.4","12","0.00","0.00"
"10:39:59","62.9","36.6","37.5","30.37","339","2.5","7","0.00","0.00"
"10:44:57","63.2","37.4","38.4","30.37","277","2.3","6.9","0.00","0.00"
"10:49:58","63.7","37.2","37.4","30.37","36","2.4","7","0.00","0.00"
"10:54:58","64","38.5","39","30.37","355","3.5","10.4","0.00","0.00"
"10:59:59","64.1","38.8","39.3","30.37","344","2.1","6","0.00","0.00"
"11:04:52","64.5","39.4","39.8","30.37","234","2.2","4.6","0.00","0.00"
"11:09:58","64.9","40.6","41","30.37","342","2.6","9.2","0.00","0.00"
"11:14:56","65.3","39.3","38.5","30.37","331","3.3","10.4","0.00","0.00"
"11:19:57","65.3","37.9","36.4","30.37","30","2.2","9.2","0.00","0.00"
"11:24:58","65.6","39.9","39","30.37","318","2.2","5","0.00","0.00"
"11:29:59","65.7","38.2","36.2","30.37","343","4.9","13","0.00","0.00"
"11:34:57","65.4","38.4","37","30.37","338","4.8","12.7","0.00","0.00"
"11:39:58","65.6","41.2","40.9","30.37","30","1.8","4","0.00","0.00"
"11:44:56","66.2","40.6","39.1","30.37","64","1.9","9","0.00","0.00"
"11:49:58","66.9","41.6","39.8","30.37","309","2.7","9.2","0.00","0.00"
"11:54:58","67.1","41","38.6","30.37","13","2.2","5.8","0.00","0.00"
"11:59:55","67.4","41.7","39.2","30.37","310","1.6","4.6","0.00","0.00"
"12:04:57","67.4","41.8","39.3","30.36","141","2","5","0.00","0.00"
"12:09:58","67.4","39.4","35.8","30.36","335","3.1","12","0.00","0.00"
"12:14:56","67.2","39.6","36.3","30.36","332","4.4","10.4","0.00","0.00"
"12:19:59","67.4","41","38.2","30.36","346","2.8","9.2","0.00","0.00"
"12:24:48","67.6","40.6","37.6","30.36","324","2.9","11.5","0.00","0.00"
"12:29:57","68","44.5","42.7","30.36","2","2.4","13","0.00","0.00"
"12:34:58","68.1","39.6","35.3","30.36","337","4.9","12.7","0.00","0.00"
"12:39:56","67.9","41.1","37.6","30.36","353","3.3","10.4","0.00","0.00"
"12:44:57","68.1","40.1","36.1","30.36","325","4.3","13","0.00","0.00"
"12:49:58","68.2","42.1","38.9","30.35","359","3","12","0.00","0.00"
"12:54:59","68.6","41.9","37.9","30.35","342","3.6","12","0.00","0.00"
"12:59:56","68.8","43","39.4","30.35","330","2.8","10.4","0.00","0.00"
"13:04:57","69.1","42.7","38.5","30.35","13","2.4","5","0.00","0.00"
"13:09:58","69.4","42.9","38.3","30.35","14","3.2","12","0.00","0.00"
"13:14:57","69.4","43.2","38.7","30.35","7","4.1","12","0.00","0.00"
"13:19:59","69.4","43.3","39","30.34","359","2.4","7","0.00","0.00"
"13:24:56","69.7","44.2","40","30.34","341","1.5","4","0.00","0.00"
"13:29:57","69.7","42.3","37.1","30.34","354","3","8.1","0.00","0.00"
"13:34:58","69.9","43.7","39","30.32","333","2.8","11","0.00","0.00"
"13:39:56","70.1","42.6","37","30.32","318","4.4","10.4","0.00","0.00"
"13:44:57","70.4","44.8","40","30.32","333","2.6","11","0.00","0.00"
"13:49:58","70.7","46","41.3","30.32","1","3.1","12","0.00","0.00"
"13:54:59","70.5","42.2","35.9","30.32","330","6.2","14","0.00","0.00"
"13:59:56","70.5","44.6","39.3","30.32","337","2.6","9.2","0.00","0.00"
"14:04:57","71.1","45.2","39.5","30.31","9","2.4","9.2","0.00","0.00"
"14:09:59","71.3","44.2","37.6","30.31","353","1.9","7","0.00","0.00"
"14:14:57","71.6","45.7","39.6","30.31","352","1.7","11.5","0.00","0.00"
"14:19:58","71.9","45.6","38.9","30.30","235","2.2","6","0.00","0.00"
"14:24:59","72.3","45.2","37.9","30.30","312","2.2","9.2","0.00","0.00"
"14:29:56","72.5","44","36","30.30","342","2.7","8.1","0.00","0.00"
"14:34:58","72.4","45.8","38.6","30.30","312","2.2","6","0.00","0.00"
"14:39:59","72.5","45.5","38.1","30.30","65","1.7","4","0.00","0.00"
"14:44:57","72.7","45.1","37.4","30.30","23","1.2","6","0.00","0.00"
"14:49:59","73","45.7","37.7","30.30","324","3.4","9.2","0.00","0.00"
"14:54:56","73","44.5","36.1","30.30","333","3.2","9.2","0.00","0.00"
"14:59:57","73","46","38.1","30.30","214","1.9","5","0.00","0.00"
"15:04:58","72.7","45.1","37.3","30.29","71","1.8","4.6","0.00","0.00"
"15:09:56","72.9","46.7","39.4","30.29","67","1.7","5","0.00","0.00"
"15:14:58","73","45.5","37.4","30.29","18","2","4.6","0.00","0.00"
"15:19:59","73","44.7","36.4","30.29","303","1.1","2.3","0.00","0.00"
"15:24:56","73.2","45.6","37.4","30.29","332","2.5","8.1","0.00","0.00"
"15:29:57","73.6","45.6","36.9","30.29","328","2.3","5","0.00","0.00"
"15:34:58","73.9","47.5","39.3","30.27","9","1.2","7","0.00","0.00"
"15:39:56","74.3","46.3","37","30.27","0","2.6","7","0.00","0.00"
"15:44:57","74.5","47.8","38.8","30.27","54","1.1","4","0.00","0.00"
"15:49:58","74.6","46.4","36.8","30.27","51","1.5","5","0.00","0.00"
"15:54:59","74.4","45.9","36.3","30.27","216","3","7","0.00","0.00"
"15:59:56","74.4","45.7","36","30.27","341","2.8","8.1","0.00","0.00"
"16:04:57","74.5","46.6","37.3","30.26","37","1.9","5","0.00","0.00"
"16:09:59","74.6","46.8","37.3","30.26","68","1.7","3.5","0.00","0.00"
"16:14:57","74.8","45.8","35.6","30.26","159","2.1","6","0.00","0.00"
"16:19:59","74.9","45.5","35.1","30.26","334","2.8","7","0.00","0.00"
"16:24:56","74.9","46.2","36.2","30.26","341","2.7","9.2","0.00","0.00"
"16:29:57","75.1","45.4","34.8","30.26","40","2.2","6","0.00","0.00"
"16:34:59","74.7","46","36","30.26","59","1.7","5","0.00","0.00"
"16:39:57","74.5","45.2","35.2","30.26","71","2.1","5","0.00","0.00"
"16:44:58","74.3","44.3","34.2","30.26","47","2.1","5","0.00","0.00"
"16:49:59","74.2","43.9","33.8","30.26","87","2.1","4.6","0.00","0.00"
"16:54:57","74.1","44.6","34.8","30.26","91","1.5","4","0.00","0.00"
"16:59:58","74.6","45.7","35.8","30.26","20","1.3","3.5","0.00","0.00"
"17:04:59","75","45.3","34.8","30.26","152","1.5","3.5","0.00","0.00"
"17:09:57","74.9","44.3","33.5","30.26","50","2.4","7","0.00","0.00"
"17:14:59","74.5","44.6","34.4","30.26","66","1.5","4","0.00","0.00"
"17:19:56","74.4","43.7","33.3","30.26","52","1.5","5","0.00","0.00"
"17:24:58","74.7","44.7","34.3","30.26","349","2.3","5","0.00","0.00"
"17:29:59","75","44.8","34.2","30.26","26","2.6","10.4","0.00","0.00"
"17:34:56","74.9","43.9","33.1","30.26","315","2","5.8","0.00","0.00"
"17:39:58","74.6","44","33.5","30.26","81","1.4","3.5","0.00","0.00"
"17:44:56","74.6","43.3","32.7","30.26","35","2","4","0.00","0.00"
"17:49:57","74.6","43.2","32.5","30.26","350","2.7","6","0.00","0.00"
"17:54:58","74.5","43","32.4","30.26","357","1.8","4.6","0.00","0.00"
"17:59:59","74.3","43.3","33","30.26","337","1.7","6","0.00","0.00"
"18:04:56","74.4","44.2","34","30.26","347","1.5","5","0.00","0.00"
"18:09:58","74.2","42.5","32.2","30.26","60","1.4","4.6","0.00","0.00"
"18:14:56","74","42.8","32.7","30.26","81","1.3","4","0.00","0.00"
"18:19:57","73.5","43.8","34.5","30.26","68","1.2","3.5","0.00","0.00"
"18:24:58","73.4","43.3","34.1","30.26","339","1.4","4","0.00","0.00"
"18:29:59","73.2","43.1","33.9","30.26","306","0.9","3.5","0.00","0.00"
"18:34:56","73","43.2","34.3","30.25","331","0.6","2.3","0.00","0.00"
"18:39:58","72.8","43.3","34.6","30.25","45","0.8","2.3","0.00","0.00"
"18:44:59","72.5","42.8","34.3","30.26","33","1","3","0.00","0.00"
"18:49:56","72.3","42.3","34","30.26","326","1.1","3.5","0.00","0.00"
"18:54:57","72","42.7","34.9","30.26","20","1.3","3.5","0.00","0.00"
"18:59:58","71.7","42.4","34.7","30.26","39","0.9","3.5","0.00","0.00"
"19:04:56","71.4","42.7","35.5","30.26","0","0.9","4","0.00","0.00"
"19:09:58","71.2","42.9","36","30.26","49","0.6","2.3","0.00","0.00"
"19:14:57","70.9","42.8","36.3","30.26","51","0.2","1.2","0.00","0.00"
"19:19:58","70.6","42.5","36.3","30.25","37","1","4","0.00","0.00"
"19:24:59","70.3","42.7","36.8","30.25","334","0.6","3.5","0.00","0.00"
"19:29:57","70","42.3","36.7","30.25","328","0.7","2.3","0.00","0.00"
"19:34:58","69.7","42.5","37.3","30.25","333","0.8","2.3","0.00","0.00"
"19:39:56","69.5","42.8","38.1","30.25","17","0.3","2.3","0.00","0.00"
"19:44:57","69.2","42.6","38.2","30.25","21","0","0","0.00","0.00"
"19:49:59","68.9","42.3","38.2","30.25","21","0","0","0.00","0.00"
"19:54:57","68.5","42.9","39.5","30.25","21","0","0","0.00","0.00"
"19:59:59","68.1","42.7","39.7","30.26","21","0","0","0.00","0.00"
"20:04:56","67.7","42.9","40.6","30.26","21","0","0","0.00","0.00"
"20:09:58","67.2","43.4","42.2","30.26","21","0","0","0.00","0.00"
"20:14:57","66.8","42.9","42","30.26","21","0","0","0.00","0.00"
"20:19:59","66.3","43","42.8","30.26","21","0","0","0.00","0.00"
"20:24:57","65.6","44.9","47.1","30.26","21","0","0","0.00","0.00"
"20:29:59","64.6","45.4","49.7","30.27","21","0","0","0.00","0.00"
"20:34:57","63.7","45","50.7","30.27","21","0","0","0.00","0.00"
"20:39:57","63.1","45.2","52","30.27","21","0","0","0.00","0.00"
"20:44:59","62.5","44.8","52.4","30.28","21","0","0","0.00","0.00"
"20:49:57","62.1","43.5","50.6","30.28","21","0","0","0.00","0.00"
"20:54:59","61.9","44.3","52.4","30.28","21","0","0","0.00","0.00"
"20:59:56","61.6","44.1","52.6","30.29","21","0","0","0.00","0.00"
"21:04:58","61.3","45.4","56.1","30.29","21","0","0","0.00","0.00"
"21:09:56","60.7","44.9","56","30.29","21","0","0","0.00","0.00"
"21:14:59","60.1","45.5","58.6","30.29","21","0","0","0.00","0.00"
"21:19:56","59.6","45.2","58.9","30.29","21","0","0","0.00","0.00"
"21:24:58","59.2","45.6","60.8","30.29","21","0","0","0.00","0.00"
"21:29:59","58.7","46","62.8","30.29","21","0","0","0.00","0.00"
"21:34:57","58.1","46","64","30.29","21","0","0","0.00","0.00"
"21:39:59","57.6","45.5","63.8","30.29","21","0","0","0.00","0.00"
"21:44:57","57.3","45.7","65.4","30.30","21","0","0","0.00","0.00"
"21:49:59","56.9","45.9","66.5","30.30","21","0","0","0.00","0.00"
"21:54:57","56.6","45.5","66.4","30.30","21","0","0","0.00","0.00"
"21:59:59","56.2","45.5","67.2","30.30","21","0","0","0.00","0.00"
"22:04:56","55.8","45.4","68.1","30.30","21","0","0","0.00","0.00"
"22:09:58","55.4","45.2","68.4","30.30","21","0","0","0.00","0.00"
"22:14:57","55.1","45.3","69.3","30.30","21","0","0","0.00","0.00"
"22:19:59","54.8","45.3","70.3","30.30","21","0","0","0.00","0.00"
"22:24:57","54.5","45.6","71.8","30.30","21","0","0","0.00","0.00"
"22:29:58","54.2","45.6","72.6","30.30","21","0","0","0.00","0.00"
"22:34:56","54","45.9","73.9","30.30","21","0","0","0.00","0.00"
"22:39:59","53.9","45.8","74","30.30","21","0","0","0.00","0.00"
"22:44:57","53.9","45.9","74.4","30.30","21","0","0","0.00","0.00"
"22:49:58","53.6","46.1","75.5","30.30","21","0","0","0.00","0.00"
"22:54:56","53.3","45.9","76","30.30","21","0","0","0.00","0.00"
"22:59:58","53","45.9","76.8","30.30","21","0","0","0.00","0.00"
"23:04:59","52.6","45.8","77.6","30.30","21","0","0","0.00","0.00"
"23:09:57","52.3","45.6","77.8","30.30","21","0","0","0.00","0.00"
"23:14:56","52","45.2","77.5","30.30","21","0","0","0.00","0.00"
"23:19:57","51.8","45.2","78","30.30","21","0","0","0.00","0.00"
"23:24:56","51.6","45.2","78.8","30.30","21","0","0","0.00","0.00"
"23:29:58","51.3","45","79","30.30","21","0","0","0.00","0.00"
"23:34:59","51.1","44.8","79.2","30.30","21","0","0","0.00","0.00"
"23:39:59","50.9","44.7","79.3","30.30","21","0","0","0.00","0.00"
"23:44:57","50.8","44.9","80","30.31","21","0","0","0.00","0.00"
"23:49:58","50.7","44.9","80","30.31","21","0","0","0.00","0.00"
"23:54:56","50.7","45","80.8","30.31","21","0","0","0.00","0.00"
"23:59:58","50.6","45","81","30.31","21","0","0","0.00","0.00"
